OCN132W EDDF-FYWH

Flight info

Callsign OCN132W
Flight time N/A
Altitude 37000
Route ANEKI2L ANEKI Y163 NATOR DCT TRA DCT RIPUS DCT GERSA DCT SOSON DCT ODINA DCT PIDAD DCT TALEP DCT VAREK DCT ERPIN DCT ETOIL DCT CIRTA UA605 CSO UM2 TILMA/N0471F390 UM2 DJA UB730 DIR UA607 FL UA403 BZ DCT KSA UT943 IMVEX/N0456F400 UT943 UNLOK/N0456F390 UT943 VEDRY
Aircraft A333/H-SDE2E3FGHIJ3J4J5LM1OP2RWXYZ/LB1D1

Departure

Time 2026-04-17 07:19
Airport Frankfurt Main Airport (EDDF)

Arrival

Time N/A
Airport Hosea Kutako International Airport (FYWH)
Time Latitude Longitude Altitude Speed Heading
2026-04-17 06:58 50.04887 8.57974 368 ft 0 kts 12°
2026-04-17 07:06 50.04883 8.57972 363 ft 3 kts 12°
2026-04-17 07:07 50.04857 8.57962 365 ft 4 kts 20°
2026-04-17 07:07 50.04832 8.57945 363 ft 4 kts 32°
2026-04-17 07:07 50.04811 8.57919 366 ft 4 kts 56°
2026-04-17 07:07 50.04805 8.57888 367 ft 2 kts 113°
2026-04-17 07:08 50.04807 8.57880 366 ft 0 kts 114°
2026-04-17 07:12 50.04781 8.57913 368 ft 8 kts 151°
2026-04-17 07:12 50.04722 8.57952 370 ft 11 kts 160°
2026-04-17 07:12 50.04645 8.57997 370 ft 13 kts 160°
2026-04-17 07:12 50.04561 8.58020 371 ft 11 kts 197°
2026-04-17 07:13 50.04522 8.57934 372 ft 11 kts 251°
2026-04-17 07:13 50.04488 8.57794 371 ft 16 kts 249°
2026-04-17 07:13 50.04446 8.57617 375 ft 19 kts 250°
2026-04-17 07:13 50.04396 8.57404 370 ft 23 kts 250°
2026-04-17 07:14 50.04339 8.57161 370 ft 25 kts 250°
2026-04-17 07:14 50.04275 8.56894 366 ft 27 kts 249°
2026-04-17 07:14 50.04205 8.56606 363 ft 30 kts 250°
2026-04-17 07:14 50.04132 8.56298 359 ft 22 kts 249°
2026-04-17 07:15 50.04093 8.56137 363 ft 17 kts 249°
2026-04-17 07:15 50.04047 8.55947 362 ft 20 kts 250°
2026-04-17 07:15 50.03995 8.55724 361 ft 24 kts 250°
2026-04-17 07:15 50.03935 8.55473 361 ft 26 kts 249°
2026-04-17 07:16 50.03870 8.55204 361 ft 28 kts 249°
2026-04-17 07:16 50.03809 8.54948 356 ft 25 kts 250°
2026-04-17 07:16 50.03744 8.54679 357 ft 28 kts 250°
2026-04-17 07:16 50.03673 8.54379 354 ft 30 kts 249°
2026-04-17 07:17 50.03602 8.54083 356 ft 30 kts 249°
2026-04-17 07:17 50.03527 8.53773 351 ft 32 kts 249°
2026-04-17 07:17 50.03368 8.53106 336 ft 34 kts 249°
2026-04-17 07:18 50.03296 8.52800 335 ft 17 kts 251°
2026-04-17 07:18 50.03264 8.52657 338 ft 11 kts 251°
2026-04-17 07:18 50.03197 8.52596 335 ft 18 kts 184°
2026-04-17 07:18 50.02854 8.52599 337 ft 85 kts 179°
2026-04-17 07:19 50.02040 8.52609 336 ft 148 kts 179°
2026-04-17 07:19 50.00834 8.52617 505 ft 191 kts 181°
2026-04-17 07:19 49.99490 8.52632 1451 ft 190 kts 180°
2026-04-17 07:19 49.98205 8.52701 2527 ft 184 kts 179°
2026-04-17 07:20 49.96918 8.52780 3388 ft 190 kts 179°
2026-04-17 07:20 49.95521 8.52860 3867 ft 214 kts 180°
2026-04-17 07:20 49.93937 8.52946 3995 ft 233 kts 180°
2026-04-17 07:20 49.92336 8.53069 4003 ft 229 kts 176°
2026-04-17 07:21 49.90747 8.53219 4238 ft 229 kts 177°
2026-04-17 07:21 49.89149 8.53361 4984 ft 232 kts 177°
2026-04-17 07:21 49.87533 8.53491 5902 ft 232 kts 177°
2026-04-17 07:21 49.85913 8.53612 6800 ft 234 kts 178°
2026-04-17 07:22 49.84831 8.53690 7362 ft 236 kts 178°
2026-04-17 07:22 49.83155 8.53807 8161 ft 241 kts 178°
2026-04-17 07:22 49.81478 8.53923 8928 ft 247 kts 178°
2026-04-17 07:22 49.79705 8.54043 9410 ft 265 kts 178°
2026-04-17 07:23 49.77796 8.54078 9883 ft 282 kts 183°
2026-04-17 07:23 49.75801 8.53864 10533 ft 295 kts 186°
2026-04-17 07:23 49.73673 8.53577 10907 ft 319 kts 186°
2026-04-17 07:23 49.71390 8.53263 11343 ft 337 kts 186°
2026-04-17 07:24 49.69020 8.52942 12035 ft 346 kts 186°
2026-04-17 07:24 49.66603 8.52619 12830 ft 352 kts 186°
2026-04-17 07:24 49.64135 8.52292 13646 ft 358 kts 186°
2026-04-17 07:24 49.61638 8.51961 14422 ft 363 kts 186°
2026-04-17 07:25 49.59104 8.51627 15157 ft 368 kts 186°
2026-04-17 07:25 49.56537 8.51289 15918 ft 372 kts 187°
2026-04-17 07:25 49.53944 8.50948 16676 ft 376 kts 187°
2026-04-17 07:25 49.51319 8.50603 17422 ft 380 kts 187°
2026-04-17 07:26 49.48729 8.50264 18150 ft 384 kts 187°
2026-04-17 07:26 49.46042 8.49911 18833 ft 388 kts 187°
2026-04-17 07:26 49.43293 8.49551 19447 ft 392 kts 187°
2026-04-17 07:26 49.42398 8.49434 19665 ft 394 kts 187°
2026-04-17 07:27 49.39654 8.49075 20282 ft 397 kts 187°
2026-04-17 07:27 49.36883 8.48714 20888 ft 401 kts 187°
2026-04-17 07:27 49.34087 8.48349 21491 ft 404 kts 187°
2026-04-17 07:27 49.31270 8.47982 22075 ft 408 kts 187°
2026-04-17 07:28 49.28425 8.47612 22654 ft 412 kts 187°
2026-04-17 07:28 49.25559 8.47238 23225 ft 416 kts 187°
2026-04-17 07:28 49.22662 8.46861 23782 ft 419 kts 187°
2026-04-17 07:28 49.19744 8.46481 24226 ft 423 kts 187°
2026-04-17 07:29 49.16801 8.46099 24686 ft 426 kts 187°
2026-04-17 07:29 49.13835 8.45714 25147 ft 429 kts 187°
2026-04-17 07:29 49.10847 8.45326 25604 ft 432 kts 187°
2026-04-17 07:29 49.07838 8.44934 26049 ft 435 kts 188°
2026-04-17 07:30 49.04836 8.44313 26494 ft 436 kts 193°
2026-04-17 07:30 49.01855 8.43419 26942 ft 438 kts 195°
2026-04-17 07:30 48.98872 8.42375 27379 ft 441 kts 197°
2026-04-17 07:30 48.95889 8.41272 27819 ft 443 kts 197°
2026-04-17 07:31 48.92875 8.40153 28251 ft 446 kts 197°
2026-04-17 07:31 48.89845 8.39044 28681 ft 449 kts 197°
2026-04-17 07:31 48.86788 8.37949 29118 ft 453 kts 197°
2026-04-17 07:31 48.83744 8.36879 29533 ft 456 kts 196°
2026-04-17 07:32 48.80645 8.35800 29955 ft 459 kts 196°
2026-04-17 07:32 48.77523 8.34708 30356 ft 462 kts 197°
2026-04-17 07:32 48.74387 8.33581 30736 ft 464 kts 197°
2026-04-17 07:32 48.71233 8.32432 31093 ft 466 kts 197°
2026-04-17 07:33 48.68078 8.31274 31457 ft 468 kts 197°
2026-04-17 07:33 48.64899 8.30108 31801 ft 471 kts 197°
2026-04-17 07:33 48.61704 8.28939 32152 ft 473 kts 198°
2026-04-17 07:33 48.58497 8.27771 32598 ft 473 kts 198°
2026-04-17 07:34 48.55299 8.26611 33132 ft 471 kts 198°
2026-04-17 07:34 48.52123 8.25462 33649 ft 469 kts 198°
2026-04-17 07:34 48.48910 8.24487 34122 ft 473 kts 188°
2026-04-17 07:34 48.45599 8.24540 34492 ft 479 kts 178°
2026-04-17 07:35 48.42296 8.25221 34892 ft 480 kts 173°
2026-04-17 07:35 48.39050 8.26165 35323 ft 479 kts 172°
2026-04-17 07:35 48.35795 8.27181 35742 ft 477 kts 172°
2026-04-17 07:35 48.32544 8.28165 36122 ft 476 kts 172°
2026-04-17 07:36 48.29294 8.29085 36492 ft 475 kts 173°
2026-04-17 07:36 48.26040 8.29944 36833 ft 474 kts 173°
2026-04-17 07:36 48.22786 8.30760 37156 ft 474 kts 174°
2026-04-17 07:36 48.19526 8.31550 37215 ft 473 kts 174°
2026-04-17 07:37 48.13050 8.33099 37205 ft 471 kts 174°
2026-04-17 07:37 48.06584 8.34653 37216 ft 470 kts 174°
2026-04-17 07:38 48.00132 8.36210 37216 ft 470 kts 174°
2026-04-17 07:38 47.93676 8.37768 37216 ft 470 kts 174°
2026-04-17 07:39 47.87264 8.39311 37219 ft 469 kts 174°
2026-04-17 07:39 47.80812 8.40860 37218 ft 469 kts 174°
2026-04-17 07:40 47.74370 8.42402 37225 ft 469 kts 174°
2026-04-17 07:40 47.67918 8.43895 37231 ft 469 kts 175°
2026-04-17 07:41 47.61433 8.44945 37233 ft 468 kts 178°
2026-04-17 07:41 47.54941 8.45826 37239 ft 468 kts 178°
2026-04-17 07:42 47.48451 8.46728 37228 ft 468 kts 177°
2026-04-17 07:42 47.41950 8.47667 37238 ft 468 kts 177°
2026-04-17 07:43 47.35504 8.48612 37237 ft 468 kts 177°
2026-04-17 07:43 47.29020 8.49561 37237 ft 468 kts 177°
2026-04-17 07:44 47.22533 8.50508 37234 ft 468 kts 177°
2026-04-17 07:44 47.16056 8.51452 37234 ft 468 kts 177°
2026-04-17 07:45 47.09579 8.52393 37230 ft 468 kts 177°
2026-04-17 07:45 47.03098 8.53332 37227 ft 468 kts 177°
2026-04-17 07:46 46.96616 8.54267 37224 ft 468 kts 177°
2026-04-17 07:46 46.90133 8.55201 37220 ft 468 kts 177°
2026-04-17 07:47 46.83654 8.56134 37212 ft 468 kts 177°
2026-04-17 07:47 46.77209 8.57054 37228 ft 468 kts 177°
2026-04-17 07:48 46.70683 8.57987 37221 ft 469 kts 177°
2026-04-17 07:48 46.64222 8.58908 37204 ft 469 kts 177°
2026-04-17 07:49 46.57717 8.59834 37208 ft 469 kts 177°
2026-04-17 07:49 46.51223 8.60756 37210 ft 469 kts 177°
2026-04-17 07:50 46.44724 8.61676 37211 ft 469 kts 177°
2026-04-17 07:50 46.38218 8.62595 37218 ft 469 kts 177°
2026-04-17 07:51 46.31720 8.63510 37213 ft 469 kts 177°
2026-04-17 07:51 46.25227 8.64422 37208 ft 469 kts 177°
2026-04-17 07:52 46.18731 8.65332 37212 ft 469 kts 177°
2026-04-17 07:52 46.12217 8.66242 37212 ft 470 kts 177°
2026-04-17 07:53 46.05755 8.66770 37208 ft 468 kts 181°
2026-04-17 07:53 45.99245 8.66842 37208 ft 467 kts 182°
2026-04-17 07:54 45.92746 8.66879 37210 ft 467 kts 182°
2026-04-17 07:54 45.86234 8.66971 37200 ft 468 kts 182°
2026-04-17 07:55 45.79728 8.67094 37198 ft 468 kts 182°
2026-04-17 07:55 45.73197 8.67226 37195 ft 469 kts 181°
2026-04-17 07:56 45.66665 8.67358 37184 ft 469 kts 181°
2026-04-17 07:56 45.60125 8.67487 37180 ft 469 kts 181°
2026-04-17 07:57 45.53598 8.67615 37185 ft 469 kts 181°
2026-04-17 07:57 45.47059 8.67743 37181 ft 469 kts 181°
2026-04-17 07:58 45.40574 8.67869 37182 ft 469 kts 181°
2026-04-17 07:58 45.34041 8.67996 37183 ft 469 kts 181°
2026-04-17 07:59 45.27505 8.68122 37183 ft 469 kts 181°
2026-04-17 07:59 45.20974 8.68249 37182 ft 469 kts 181°
2026-04-17 08:00 45.14443 8.68375 37181 ft 469 kts 181°
2026-04-17 08:00 45.07909 8.68501 37185 ft 470 kts 181°
2026-04-17 08:01 45.01372 8.68626 37186 ft 469 kts 181°
2026-04-17 08:01 44.94837 8.68752 37183 ft 469 kts 181°
2026-04-17 08:02 44.88350 8.68876 37177 ft 469 kts 181°
2026-04-17 08:02 44.81827 8.69000 37179 ft 469 kts 181°
2026-04-17 08:03 44.75288 8.69125 37178 ft 470 kts 181°
2026-04-17 08:03 44.68753 8.69249 37161 ft 470 kts 181°
2026-04-17 08:04 44.62211 8.69373 37147 ft 470 kts 181°
2026-04-17 08:04 44.55671 8.69497 37144 ft 470 kts 181°
2026-04-17 08:05 44.49133 8.69620 37131 ft 470 kts 181°
2026-04-17 08:05 44.42627 8.69743 37132 ft 470 kts 181°
2026-04-17 08:06 44.36087 8.69866 37130 ft 470 kts 181°
2026-04-17 08:06 44.29547 8.69988 37148 ft 470 kts 181°
2026-04-17 08:07 44.22999 8.70110 37153 ft 470 kts 181°
2026-04-17 08:07 44.17560 8.70212 37147 ft 470 kts 181°
2026-04-17 08:08 44.11010 8.70334 37136 ft 470 kts 181°
2026-04-17 08:08 44.04469 8.70455 37133 ft 470 kts 181°
2026-04-17 08:09 43.97930 8.70577 37133 ft 470 kts 181°
2026-04-17 08:09 43.91388 8.70698 37136 ft 470 kts 181°
2026-04-17 08:10 43.84849 8.70818 37133 ft 470 kts 181°
2026-04-17 08:10 43.78300 8.70939 37139 ft 470 kts 181°
2026-04-17 08:11 43.71810 8.71058 37142 ft 470 kts 181°
2026-04-17 08:11 43.65258 8.71179 37152 ft 470 kts 181°
2026-04-17 08:12 43.58714 8.71250 37143 ft 470 kts 181°
2026-04-17 08:12 43.52166 8.71243 37143 ft 470 kts 182°
2026-04-17 08:13 43.45635 8.71025 37136 ft 467 kts 193°
2026-04-17 08:13 43.42519 8.69796 37137 ft 463 kts 204°
2026-04-17 08:14 43.36742 8.65960 37146 ft 461 kts 211°
2026-04-17 08:14 43.31072 8.61808 37149 ft 462 kts 210°
2026-04-17 08:15 43.25315 8.57857 37153 ft 463 kts 208°
2026-04-17 08:15 43.19529 8.54081 37153 ft 464 kts 207°
2026-04-17 08:16 43.13682 8.50329 37135 ft 464 kts 207°
2026-04-17 08:16 43.07838 8.46583 37131 ft 464 kts 207°
2026-04-17 08:17 43.01984 8.42828 37128 ft 464 kts 207°
2026-04-17 08:17 42.96130 8.39078 37134 ft 464 kts 207°
2026-04-17 08:18 42.90275 8.35333 37140 ft 465 kts 207°
2026-04-17 08:18 42.84420 8.31597 37137 ft 465 kts 207°
2026-04-17 08:19 42.78558 8.27864 37137 ft 465 kts 207°
2026-04-17 08:19 42.72699 8.24141 37141 ft 465 kts 207°
2026-04-17 08:20 42.66827 8.20418 37138 ft 465 kts 207°
2026-04-17 08:20 42.60990 8.16724 37142 ft 466 kts 207°
2026-04-17 08:21 42.55111 8.13012 37140 ft 466 kts 207°
2026-04-17 08:21 42.49227 8.09305 37140 ft 466 kts 207°
2026-04-17 08:22 42.43347 8.05608 37142 ft 466 kts 207°
2026-04-17 08:22 42.37501 8.01939 37143 ft 466 kts 207°
2026-04-17 08:23 42.31615 7.98259 37143 ft 466 kts 206°
2026-04-17 08:23 42.25634 7.94824 37143 ft 467 kts 204°
2026-04-17 08:24 42.19592 7.91546 37146 ft 467 kts 204°
2026-04-17 08:24 42.13564 7.88279 37149 ft 467 kts 204°
2026-04-17 08:25 42.07536 7.84988 37150 ft 467 kts 204°
2026-04-17 08:25 42.01506 7.81689 37151 ft 468 kts 204°
2026-04-17 08:26 41.95516 7.78415 37148 ft 468 kts 204°
2026-04-17 08:26 41.89471 7.75119 37148 ft 468 kts 204°
2026-04-17 08:27 41.83425 7.71830 37156 ft 469 kts 204°
2026-04-17 08:27 41.77380 7.68549 37154 ft 469 kts 204°
2026-04-17 08:28 41.71329 7.65272 37151 ft 469 kts 204°
2026-04-17 08:28 41.65273 7.61998 37154 ft 470 kts 204°
2026-04-17 08:29 41.59214 7.58729 37151 ft 470 kts 204°
2026-04-17 08:29 41.52927 7.56325 37154 ft 471 kts 192°
2026-04-17 08:30 41.46451 7.54908 37157 ft 472 kts 189°
2026-04-17 08:30 41.39990 7.53612 37156 ft 473 kts 190°
2026-04-17 08:31 41.33498 7.52206 37158 ft 473 kts 191°
2026-04-17 08:31 41.27018 7.50734 37157 ft 473 kts 191°
2026-04-17 08:32 41.20531 7.49243 37157 ft 473 kts 191°
2026-04-17 08:32 41.14039 7.47757 37156 ft 473 kts 191°
2026-04-17 08:33 41.07550 7.46278 37157 ft 473 kts 191°
2026-04-17 08:33 41.01046 7.44801 37154 ft 474 kts 191°
2026-04-17 08:34 40.94583 7.43336 37155 ft 474 kts 191°
2026-04-17 08:34 40.88077 7.41864 37155 ft 474 kts 190°
2026-04-17 08:35 40.81570 7.40394 37156 ft 475 kts 190°
2026-04-17 08:35 40.75048 7.38924 37159 ft 475 kts 190°
2026-04-17 08:36 40.68519 7.37456 37159 ft 475 kts 190°
2026-04-17 08:36 40.61993 7.35991 37159 ft 476 kts 190°
2026-04-17 08:37 40.55454 7.34526 37160 ft 477 kts 190°
2026-04-17 08:37 40.48950 7.33072 37158 ft 477 kts 190°
2026-04-17 08:38 40.42412 7.31613 37159 ft 477 kts 190°
2026-04-17 08:38 40.35875 7.30157 37159 ft 477 kts 190°
2026-04-17 08:39 40.29337 7.28704 37167 ft 477 kts 190°
2026-04-17 08:39 40.22793 7.27252 37159 ft 477 kts 190°
2026-04-17 08:40 40.16237 7.25801 37161 ft 478 kts 190°
2026-04-17 08:40 40.09673 7.24350 37162 ft 478 kts 190°
2026-04-17 08:41 40.03103 7.22901 37166 ft 478 kts 190°
2026-04-17 08:41 39.96539 7.21457 37163 ft 479 kts 190°
2026-04-17 08:42 39.89956 7.20010 37163 ft 480 kts 190°
2026-04-17 08:42 39.83368 7.18566 37163 ft 480 kts 190°
2026-04-17 08:43 39.76821 7.17133 37161 ft 480 kts 189°
2026-04-17 08:43 39.70213 7.15755 37165 ft 482 kts 188°
2026-04-17 08:44 39.63571 7.14561 37166 ft 482 kts 188°
2026-04-17 08:44 39.56925 7.13406 37168 ft 482 kts 188°
2026-04-17 08:45 39.50272 7.12236 37166 ft 483 kts 188°
2026-04-17 08:45 39.43604 7.11051 37168 ft 483 kts 188°
2026-04-17 08:46 39.36990 7.09874 37171 ft 483 kts 188°
2026-04-17 08:46 39.30330 7.08690 37171 ft 484 kts 188°
2026-04-17 08:47 39.23652 7.07507 37170 ft 484 kts 188°
2026-04-17 08:47 39.16970 7.06325 37170 ft 484 kts 188°
2026-04-17 08:48 39.10292 7.05147 37171 ft 485 kts 187°
2026-04-17 08:48 39.03600 7.03968 37170 ft 485 kts 187°
2026-04-17 08:49 38.96902 7.02813 37172 ft 485 kts 187°
2026-04-17 08:49 38.90201 7.01722 37180 ft 485 kts 187°
2026-04-17 08:50 38.83494 7.00645 37176 ft 486 kts 187°
2026-04-17 08:50 38.76779 6.99563 37176 ft 486 kts 187°
2026-04-17 08:51 38.70105 6.98485 37178 ft 486 kts 187°
2026-04-17 08:51 38.63394 6.97401 37178 ft 486 kts 187°
2026-04-17 08:52 38.56675 6.96318 37177 ft 486 kts 187°
2026-04-17 08:52 38.49955 6.95237 37184 ft 486 kts 187°
2026-04-17 08:53 38.43235 6.94158 37185 ft 486 kts 187°
2026-04-17 08:53 38.36517 6.93082 37184 ft 486 kts 187°
2026-04-17 08:54 38.29847 6.92015 37182 ft 486 kts 187°
2026-04-17 08:54 38.23136 6.90944 37184 ft 486 kts 187°
2026-04-17 08:55 38.16419 6.89874 37188 ft 486 kts 186°
2026-04-17 08:55 38.09699 6.88805 37186 ft 486 kts 186°
2026-04-17 08:56 38.02984 6.87739 37188 ft 486 kts 186°
2026-04-17 08:56 37.97400 6.86854 37195 ft 486 kts 186°
2026-04-17 08:57 37.90680 6.85791 37193 ft 487 kts 186°
2026-04-17 08:57 37.83961 6.84730 37194 ft 487 kts 186°
2026-04-17 08:58 37.77230 6.83669 37195 ft 486 kts 187°
2026-04-17 08:58 37.70511 6.82612 37197 ft 486 kts 186°
2026-04-17 08:59 37.63837 6.81564 37197 ft 486 kts 186°
2026-04-17 08:59 37.57120 6.80511 37200 ft 486 kts 186°
2026-04-17 09:00 37.50400 6.79459 37204 ft 486 kts 186°
2026-04-17 09:00 37.43678 6.78410 37206 ft 487 kts 186°
2026-04-17 09:01 37.36947 6.77360 37208 ft 487 kts 186°
2026-04-17 09:01 37.30221 6.76313 37208 ft 487 kts 186°
2026-04-17 09:02 37.23495 6.75268 37208 ft 487 kts 187°
2026-04-17 09:02 37.16768 6.74225 37208 ft 487 kts 187°
2026-04-17 09:03 37.10029 6.73182 37211 ft 487 kts 187°
2026-04-17 09:03 37.03288 6.72141 37211 ft 487 kts 187°
2026-04-17 09:04 36.96599 6.71109 37211 ft 488 kts 187°
2026-04-17 09:04 36.89843 6.70069 37211 ft 488 kts 187°
2026-04-17 09:05 36.83101 6.69033 37213 ft 488 kts 187°
2026-04-17 09:05 36.76356 6.67998 37215 ft 489 kts 187°
2026-04-17 09:06 36.69601 6.66964 37217 ft 489 kts 187°
2026-04-17 09:06 36.62846 6.65931 37220 ft 489 kts 187°
2026-04-17 09:07 36.56085 6.64899 37230 ft 489 kts 187°
2026-04-17 09:07 36.49325 6.63869 37230 ft 489 kts 187°
2026-04-17 09:08 36.42604 6.62848 37235 ft 489 kts 187°
2026-04-17 09:08 36.35846 6.61822 37238 ft 489 kts 187°
2026-04-17 09:09 36.29078 6.60929 37233 ft 489 kts 178°
2026-04-17 09:09 36.22369 6.62067 37239 ft 487 kts 166°
2026-04-17 09:10 36.12465 6.64999 37236 ft 488 kts 166°
2026-04-17 09:10 36.05837 6.66830 37222 ft 488 kts 167°
2026-04-17 09:11 35.99193 6.68546 37223 ft 487 kts 167°
2026-04-17 09:11 35.92558 6.70222 37217 ft 486 kts 167°
2026-04-17 09:12 35.85917 6.71898 37215 ft 487 kts 167°
2026-04-17 09:12 35.79289 6.73573 37216 ft 487 kts 167°
2026-04-17 09:13 35.72651 6.75252 37214 ft 487 kts 167°
2026-04-17 09:13 35.66055 6.76917 37214 ft 486 kts 167°
2026-04-17 09:14 35.59419 6.78590 37214 ft 486 kts 167°
2026-04-17 09:14 35.52786 6.80258 37213 ft 487 kts 167°
2026-04-17 09:15 35.46138 6.81928 37212 ft 488 kts 167°
2026-04-17 09:15 35.39476 6.83598 37207 ft 488 kts 167°
2026-04-17 09:16 35.32830 6.85261 37207 ft 487 kts 168°
2026-04-17 09:16 35.26198 6.86919 37205 ft 486 kts 168°
2026-04-17 09:17 35.19622 6.88559 37197 ft 485 kts 168°
2026-04-17 09:17 35.12994 6.90210 37190 ft 485 kts 168°
2026-04-17 09:18 35.06381 6.91854 37191 ft 485 kts 168°
2026-04-17 09:18 34.99773 6.93494 37184 ft 483 kts 168°
2026-04-17 09:19 34.93230 6.95116 37178 ft 482 kts 168°
2026-04-17 09:19 34.86644 6.96745 37178 ft 482 kts 168°
2026-04-17 09:20 34.80072 6.98369 37173 ft 482 kts 168°
2026-04-17 09:20 34.73503 7.00022 37170 ft 482 kts 168°
2026-04-17 09:21 34.66948 7.01685 37168 ft 481 kts 168°
2026-04-17 09:21 34.60428 7.03337 37167 ft 481 kts 168°
2026-04-17 09:22 34.53876 7.04991 37168 ft 481 kts 168°
2026-04-17 09:22 34.47316 7.06642 37162 ft 481 kts 168°
2026-04-17 09:23 34.40763 7.08289 37165 ft 480 kts 168°
2026-04-17 09:23 34.34213 7.09933 37165 ft 480 kts 168°
2026-04-17 09:24 34.27653 7.11577 37162 ft 480 kts 169°
2026-04-17 09:24 34.21151 7.13203 37164 ft 481 kts 169°
2026-04-17 09:25 34.14588 7.14843 37160 ft 481 kts 169°
2026-04-17 09:25 34.08031 7.16478 37159 ft 481 kts 169°
2026-04-17 09:26 34.01468 7.18112 37166 ft 481 kts 169°
2026-04-17 09:26 33.94904 7.19744 37160 ft 481 kts 169°
2026-04-17 09:27 33.88357 7.21369 37162 ft 480 kts 169°
2026-04-17 09:27 33.81813 7.22990 37160 ft 480 kts 169°
2026-04-17 09:28 33.75306 7.24600 37165 ft 480 kts 169°
2026-04-17 09:28 33.68766 7.26216 37165 ft 480 kts 170°
2026-04-17 09:29 33.62234 7.27828 37165 ft 479 kts 170°
2026-04-17 09:29 33.55708 7.29435 37162 ft 479 kts 170°
2026-04-17 09:30 33.49176 7.31041 37165 ft 479 kts 170°
2026-04-17 09:30 33.42648 7.32644 37164 ft 479 kts 170°
2026-04-17 09:31 33.36113 7.34246 37165 ft 479 kts 170°
2026-04-17 09:31 33.29571 7.35847 37165 ft 479 kts 170°
2026-04-17 09:32 33.23069 7.37436 37165 ft 479 kts 170°
2026-04-17 09:32 33.16537 7.39030 37165 ft 479 kts 170°
2026-04-17 09:33 33.09991 7.40625 37165 ft 479 kts 170°
2026-04-17 09:33 33.03446 7.42218 37162 ft 479 kts 170°
2026-04-17 09:34 32.96911 7.43805 37162 ft 479 kts 170°
2026-04-17 09:34 32.90373 7.45391 37160 ft 479 kts 171°
2026-04-17 09:35 32.83830 7.46975 37162 ft 480 kts 171°
2026-04-17 09:35 32.77285 7.48558 37162 ft 480 kts 171°
2026-04-17 09:36 32.70742 7.50138 37157 ft 480 kts 171°
2026-04-17 09:36 32.64194 7.51717 37154 ft 480 kts 171°
2026-04-17 09:37 32.57633 7.53296 37161 ft 481 kts 171°
2026-04-17 09:37 32.51117 7.54863 37162 ft 481 kts 171°
2026-04-17 09:38 32.44549 7.56439 37157 ft 481 kts 171°
2026-04-17 09:38 32.37986 7.58012 37146 ft 481 kts 172°
2026-04-17 09:39 32.31416 7.59585 37151 ft 481 kts 172°
2026-04-17 09:39 32.24846 7.61155 37147 ft 481 kts 172°
2026-04-17 09:40 32.18283 7.62721 37154 ft 481 kts 172°
2026-04-17 09:40 32.11726 7.64283 37150 ft 481 kts 172°
2026-04-17 09:41 32.05162 7.65845 37150 ft 481 kts 172°
2026-04-17 09:41 31.98635 7.67395 37148 ft 481 kts 172°
2026-04-17 09:42 31.92071 7.68953 37145 ft 481 kts 172°
2026-04-17 09:42 31.85505 7.70508 37150 ft 481 kts 172°
2026-04-17 09:43 31.78943 7.72060 37145 ft 481 kts 172°
2026-04-17 09:43 31.72378 7.73623 37145 ft 481 kts 172°
2026-04-17 09:44 31.66925 7.74942 37145 ft 481 kts 172°
2026-04-17 09:44 31.59293 7.76792 37147 ft 481 kts 172°
2026-04-17 09:45 31.52742 7.78375 37136 ft 481 kts 172°
2026-04-17 09:45 31.47259 7.79696 37150 ft 480 kts 172°
2026-04-17 09:46 31.40757 7.81260 37149 ft 480 kts 172°
2026-04-17 09:46 31.34208 7.82833 37134 ft 480 kts 172°
2026-04-17 09:47 31.27662 7.84403 37121 ft 480 kts 172°
2026-04-17 09:47 31.21123 7.85969 37139 ft 479 kts 172°
2026-04-17 09:48 31.14600 7.87530 37140 ft 479 kts 172°
2026-04-17 09:48 31.08071 7.89089 37135 ft 479 kts 172°
2026-04-17 09:49 31.01534 7.90648 37134 ft 479 kts 172°
2026-04-17 09:49 30.95051 7.92192 37135 ft 478 kts 172°
2026-04-17 09:50 30.88533 7.93743 37136 ft 478 kts 172°
2026-04-17 09:50 30.82010 7.95292 37131 ft 478 kts 172°
2026-04-17 09:51 30.75490 7.96838 37129 ft 478 kts 172°
2026-04-17 09:51 30.68972 7.98382 37121 ft 478 kts 172°
2026-04-17 09:52 30.62456 7.99924 37129 ft 476 kts 172°
2026-04-17 09:52 30.56001 8.01449 37130 ft 476 kts 172°
2026-04-17 09:53 30.49503 8.02982 37133 ft 476 kts 172°
2026-04-17 09:53 30.43012 8.04511 37133 ft 476 kts 172°
2026-04-17 09:54 30.36507 8.06041 37130 ft 476 kts 172°
2026-04-17 09:54 30.30017 8.07565 37129 ft 476 kts 172°
2026-04-17 09:55 30.23524 8.09089 37128 ft 476 kts 172°
2026-04-17 09:55 30.17031 8.10610 37127 ft 476 kts 172°
2026-04-17 09:56 30.10586 8.12119 37126 ft 475 kts 172°
2026-04-17 09:56 30.04127 8.13634 37125 ft 473 kts 172°
2026-04-17 09:57 29.97673 8.15165 37125 ft 473 kts 172°
2026-04-17 09:57 29.91235 8.16698 37127 ft 473 kts 172°
2026-04-17 09:58 29.84783 8.18231 37109 ft 473 kts 172°
2026-04-17 09:58 29.78348 8.19755 37124 ft 471 kts 172°
2026-04-17 09:59 29.71924 8.21275 37118 ft 471 kts 172°
2026-04-17 09:59 29.65507 8.22790 37118 ft 471 kts 172°
2026-04-17 10:00 29.59080 8.24306 37116 ft 471 kts 172°
2026-04-17 10:00 29.52697 8.25810 37124 ft 471 kts 172°
2026-04-17 10:01 29.46277 8.27320 37108 ft 470 kts 172°
2026-04-17 10:01 29.39862 8.28828 37123 ft 470 kts 172°
2026-04-17 10:02 29.33450 8.30333 37124 ft 470 kts 172°
2026-04-17 10:02 29.27027 8.31838 37107 ft 470 kts 172°
2026-04-17 10:03 29.20620 8.33338 37112 ft 470 kts 172°
2026-04-17 10:03 29.14255 8.34827 37114 ft 469 kts 173°
2026-04-17 10:04 29.07849 8.36322 37108 ft 470 kts 173°
2026-04-17 10:04 29.01441 8.37817 37107 ft 470 kts 173°
2026-04-17 10:05 28.95041 8.39308 37101 ft 469 kts 173°
2026-04-17 10:05 28.88640 8.40797 37108 ft 468 kts 173°
2026-04-17 10:06 28.82252 8.42282 37103 ft 468 kts 173°
2026-04-17 10:06 28.75866 8.43763 37106 ft 468 kts 173°
2026-04-17 10:07 28.69481 8.45242 37105 ft 468 kts 173°
2026-04-17 10:07 28.63099 8.46720 37097 ft 467 kts 173°
2026-04-17 10:08 28.56723 8.48194 37098 ft 467 kts 173°
2026-04-17 10:08 28.50398 8.49654 37098 ft 467 kts 173°
2026-04-17 10:09 28.44028 8.51123 37097 ft 467 kts 173°
2026-04-17 10:09 28.37652 8.52592 37090 ft 467 kts 174°
2026-04-17 10:10 28.31280 8.54058 37093 ft 467 kts 174°
2026-04-17 10:11 28.21732 8.56250 37089 ft 467 kts 174°
2026-04-17 10:11 28.15364 8.57711 37086 ft 467 kts 174°
2026-04-17 10:12 28.08995 8.59171 37067 ft 467 kts 174°
2026-04-17 10:12 28.02665 8.60635 37083 ft 466 kts 174°
2026-04-17 10:13 27.96297 8.62111 37083 ft 466 kts 174°
2026-04-17 10:13 27.89938 8.63584 37081 ft 466 kts 174°
2026-04-17 10:14 27.83577 8.65053 37080 ft 466 kts 174°
2026-04-17 10:14 27.77261 8.66511 37070 ft 466 kts 175°
2026-04-17 10:15 27.70898 8.67977 37079 ft 466 kts 175°
2026-04-17 10:15 27.64552 8.69438 37080 ft 465 kts 175°
2026-04-17 10:16 27.58211 8.70896 37079 ft 465 kts 175°
2026-04-17 10:16 27.51868 8.72352 37076 ft 465 kts 175°
2026-04-17 10:17 27.45515 8.73809 37073 ft 465 kts 175°
2026-04-17 10:17 27.39172 8.75262 37074 ft 465 kts 175°
2026-04-17 10:18 27.32832 8.76712 37076 ft 465 kts 175°
2026-04-17 10:18 27.26531 8.78152 37067 ft 465 kts 175°
2026-04-17 10:19 27.20189 8.79600 37071 ft 465 kts 175°
2026-04-17 10:19 27.13849 8.81047 37066 ft 465 kts 176°
2026-04-17 10:20 27.07507 8.82491 37064 ft 464 kts 176°
2026-04-17 10:20 27.01171 8.83932 37065 ft 464 kts 176°
2026-04-17 10:21 26.94828 8.85380 37069 ft 464 kts 176°
2026-04-17 10:21 26.88536 8.86823 37043 ft 464 kts 177°
2026-04-17 10:22 26.82206 8.88275 37075 ft 463 kts 177°
2026-04-17 10:22 26.75896 8.89718 37084 ft 463 kts 177°
2026-04-17 10:23 26.69580 8.91159 37060 ft 463 kts 177°
2026-04-17 10:23 26.63265 8.92599 37051 ft 463 kts 177°
2026-04-17 10:24 26.56988 8.94030 37047 ft 462 kts 178°
2026-04-17 10:24 26.50682 8.95465 37059 ft 462 kts 178°
2026-04-17 10:25 26.44373 8.96900 37059 ft 462 kts 178°
2026-04-17 10:25 26.38070 8.98331 37055 ft 462 kts 178°
2026-04-17 10:26 26.31770 8.99760 37057 ft 462 kts 178°
2026-04-17 10:26 26.25509 9.01178 37047 ft 462 kts 178°
2026-04-17 10:27 26.19208 9.02604 37057 ft 462 kts 178°
2026-04-17 10:27 26.12904 9.04029 37051 ft 462 kts 178°
2026-04-17 10:28 26.06600 9.05453 37052 ft 462 kts 178°
2026-04-17 10:28 26.00283 9.06878 37050 ft 463 kts 178°
2026-04-17 10:29 25.93978 9.08309 37050 ft 462 kts 179°
2026-04-17 10:29 25.87687 9.09740 37051 ft 461 kts 179°
2026-04-17 10:30 25.81444 9.11157 37052 ft 461 kts 179°
2026-04-17 10:30 25.75159 9.12581 37054 ft 461 kts 179°
2026-04-17 10:31 25.68873 9.14003 37049 ft 461 kts 179°
2026-04-17 10:31 25.62590 9.15424 37037 ft 459 kts 179°
2026-04-17 10:32 25.56340 9.16840 37049 ft 457 kts 179°
2026-04-17 10:32 25.50142 9.18237 37050 ft 457 kts 180°
2026-04-17 10:33 25.43909 9.19640 37055 ft 457 kts 180°
2026-04-17 10:33 25.37677 9.21043 37055 ft 457 kts 180°
2026-04-17 10:34 25.31443 9.22445 37053 ft 456 kts 180°
2026-04-17 10:34 25.26285 9.23607 37056 ft 454 kts 180°
2026-04-17 10:35 25.20094 9.24996 37054 ft 454 kts 180°
2026-04-17 10:35 25.13897 9.26385 37053 ft 454 kts 180°
2026-04-17 10:36 25.07710 9.27770 37053 ft 454 kts 180°
2026-04-17 10:36 25.01641 9.29145 37038 ft 436 kts 180°
2026-04-17 10:37 24.95742 9.30473 37043 ft 430 kts 181°
2026-04-17 10:37 24.89921 9.31760 37045 ft 429 kts 181°
2026-04-17 10:38 24.84072 9.33054 37027 ft 429 kts 181°
2026-04-17 10:38 24.78214 9.34357 37031 ft 429 kts 181°
2026-04-17 10:39 24.72358 9.35662 37041 ft 429 kts 181°
2026-04-17 10:39 24.66518 9.36964 37025 ft 427 kts 181°
2026-04-17 10:40 24.60707 9.38259 37041 ft 425 kts 181°
2026-04-17 10:40 24.54906 9.39545 37046 ft 425 kts 181°
2026-04-17 10:41 24.49105 9.40830 37077 ft 425 kts 181°
2026-04-17 10:41 24.43304 9.42115 37093 ft 425 kts 181°
2026-04-17 10:42 24.37499 9.43400 37101 ft 425 kts 181°
2026-04-17 10:42 24.31700 9.44684 37102 ft 425 kts 181°
2026-04-17 10:42 24.28797 9.45436 37096 ft 437 kts 173°
2026-04-17 10:43 24.25954 9.46746 37102 ft 449 kts 165°
2026-04-17 10:43 24.20468 9.50233 37098 ft 459 kts 160°
2026-04-17 10:44 24.15095 9.53946 37078 ft 459 kts 160°
2026-04-17 10:44 24.09653 9.57575 37056 ft 457 kts 161°
2026-04-17 10:45 24.04185 9.61102 37027 ft 455 kts 162°
2026-04-17 10:45 23.98723 9.64585 37003 ft 454 kts 162°
2026-04-17 10:46 23.93268 9.68056 37001 ft 453 kts 162°
2026-04-17 10:46 23.87842 9.71511 37001 ft 454 kts 162°
2026-04-17 10:47 23.82386 9.74986 37001 ft 454 kts 162°
2026-04-17 10:47 23.76936 9.78454 36999 ft 454 kts 162°
2026-04-17 10:48 23.71484 9.81922 37000 ft 453 kts 162°
2026-04-17 10:48 23.66047 9.85376 36991 ft 452 kts 162°
2026-04-17 10:49 23.60618 9.88821 36991 ft 451 kts 162°
2026-04-17 10:49 23.55194 9.92258 36990 ft 451 kts 162°
2026-04-17 10:50 23.49768 9.95693 36993 ft 451 kts 162°
2026-04-17 10:50 23.44343 9.99125 36991 ft 451 kts 162°
2026-04-17 10:51 23.38955 10.02532 36983 ft 450 kts 162°
2026-04-17 10:51 23.33540 10.05952 36985 ft 450 kts 162°
2026-04-17 10:52 23.28127 10.09367 36985 ft 449 kts 163°
2026-04-17 10:52 23.22710 10.12780 36985 ft 449 kts 163°
2026-04-17 10:53 23.17290 10.16193 36983 ft 449 kts 163°
2026-04-17 10:53 23.11913 10.19575 36980 ft 449 kts 163°
2026-04-17 10:54 23.06507 10.22974 36975 ft 448 kts 163°
2026-04-17 10:54 23.01116 10.26361 36979 ft 447 kts 163°
2026-04-17 10:55 22.95730 10.29739 36977 ft 447 kts 163°
2026-04-17 10:55 22.90340 10.33116 36977 ft 447 kts 163°
2026-04-17 10:56 22.84950 10.36490 36975 ft 447 kts 163°
2026-04-17 10:56 22.79567 10.39857 36974 ft 447 kts 163°
2026-04-17 10:57 22.74177 10.43226 36959 ft 446 kts 162°
2026-04-17 10:57 22.68850 10.46555 36968 ft 444 kts 163°
2026-04-17 10:58 22.63487 10.49906 36970 ft 445 kts 162°
2026-04-17 10:58 22.58177 10.53391 36965 ft 447 kts 161°
2026-04-17 10:59 22.52891 10.56963 36966 ft 448 kts 161°
2026-04-17 10:59 22.47608 10.60531 36966 ft 447 kts 161°
2026-04-17 11:00 22.42321 10.64079 36926 ft 447 kts 161°
2026-04-17 11:00 22.37068 10.67591 36969 ft 447 kts 161°
2026-04-17 11:01 22.31777 10.71125 36967 ft 447 kts 161°
2026-04-17 11:01 22.26482 10.74659 36965 ft 447 kts 161°
2026-04-17 11:02 22.21189 10.78189 36957 ft 447 kts 161°
2026-04-17 11:02 22.15900 10.81713 36956 ft 447 kts 161°
2026-04-17 11:03 22.10604 10.85239 36955 ft 447 kts 161°
2026-04-17 11:03 22.05301 10.88766 36950 ft 448 kts 161°
2026-04-17 11:04 22.00030 10.92268 36950 ft 448 kts 161°
2026-04-17 11:04 21.94716 10.95796 36947 ft 448 kts 161°
2026-04-17 11:05 21.89404 10.99321 36949 ft 448 kts 161°
2026-04-17 11:05 21.84092 11.02842 36950 ft 448 kts 161°
2026-04-17 11:06 21.78782 11.06359 36943 ft 448 kts 161°
2026-04-17 11:06 21.73466 11.09875 36926 ft 448 kts 161°
2026-04-17 11:07 21.68135 11.13397 36938 ft 450 kts 161°
2026-04-17 11:07 21.62835 11.16898 36939 ft 450 kts 160°
2026-04-17 11:08 21.57503 11.20418 36946 ft 450 kts 161°
2026-04-17 11:08 21.52169 11.23935 36938 ft 450 kts 161°
2026-04-17 11:09 21.46836 11.27448 36935 ft 450 kts 161°
2026-04-17 11:09 21.41495 11.30963 36934 ft 450 kts 161°
2026-04-17 11:10 21.33467 11.36237 36933 ft 452 kts 161°
2026-04-17 11:10 21.28092 11.39768 36933 ft 452 kts 160°
2026-04-17 11:11 21.22718 11.43296 36933 ft 452 kts 161°
2026-04-17 11:11 21.17386 11.46792 36930 ft 452 kts 161°
2026-04-17 11:12 21.12014 11.50312 36927 ft 452 kts 161°
2026-04-17 11:12 21.06645 11.53826 36927 ft 452 kts 161°
2026-04-17 11:13 21.01271 11.57341 36928 ft 452 kts 161°
2026-04-17 11:13 20.95897 11.60853 36922 ft 452 kts 161°
2026-04-17 11:14 20.90519 11.64365 36919 ft 452 kts 161°
2026-04-17 11:14 20.85183 11.67846 36908 ft 452 kts 161°
2026-04-17 11:15 20.79798 11.71356 36917 ft 453 kts 161°
2026-04-17 11:15 20.74421 11.74858 36916 ft 453 kts 161°
2026-04-17 11:16 20.69034 11.78364 36911 ft 453 kts 161°
2026-04-17 11:16 20.63645 11.81868 36911 ft 453 kts 161°
2026-04-17 11:17 20.58252 11.85371 36908 ft 453 kts 161°
2026-04-17 11:17 20.52866 11.88867 36908 ft 453 kts 161°
2026-04-17 11:18 20.47507 11.92340 36903 ft 453 kts 161°
2026-04-17 11:18 20.42116 11.95832 36903 ft 453 kts 161°
2026-04-17 11:19 20.36718 11.99325 36897 ft 453 kts 160°
2026-04-17 11:19 20.31323 12.02814 36900 ft 454 kts 161°
2026-04-17 11:20 20.25923 12.06302 36899 ft 454 kts 160°
2026-04-17 11:20 20.20522 12.09789 36900 ft 454 kts 160°
2026-04-17 11:21 20.15117 12.13276 36897 ft 454 kts 160°
2026-04-17 11:21 20.09715 12.16757 36897 ft 454 kts 160°
2026-04-17 11:22 20.04347 12.20214 36865 ft 454 kts 160°
2026-04-17 11:22 19.98952 12.23687 36890 ft 453 kts 160°
2026-04-17 11:23 19.94438 12.26590 36891 ft 452 kts 160°
2026-04-17 11:23 19.89045 12.30054 36888 ft 452 kts 160°
2026-04-17 11:24 19.83693 12.33489 36883 ft 452 kts 160°
2026-04-17 11:24 19.78306 12.36944 36882 ft 452 kts 160°
2026-04-17 11:25 19.72919 12.40397 36886 ft 452 kts 160°
2026-04-17 11:25 19.67527 12.43851 36876 ft 451 kts 160°
2026-04-17 11:26 19.62167 12.47283 36879 ft 449 kts 160°
2026-04-17 11:26 19.56812 12.50707 36877 ft 449 kts 160°
2026-04-17 11:27 19.51496 12.54102 36881 ft 449 kts 160°
2026-04-17 11:27 19.46144 12.57519 36878 ft 449 kts 160°
2026-04-17 11:28 19.40792 12.60932 36874 ft 449 kts 160°
2026-04-17 11:28 19.35432 12.64349 36847 ft 449 kts 160°
2026-04-17 11:29 19.30072 12.67763 36875 ft 449 kts 159°
2026-04-17 11:29 19.24717 12.71172 36873 ft 449 kts 159°
2026-04-17 11:30 19.19399 12.74554 36870 ft 449 kts 159°
2026-04-17 11:30 19.14048 12.77954 36866 ft 449 kts 159°
2026-04-17 11:31 19.08694 12.81354 36870 ft 449 kts 159°
2026-04-17 11:31 19.03338 12.84752 36868 ft 449 kts 159°
2026-04-17 11:32 18.97943 12.88057 36859 ft 442 kts 165°
2026-04-17 11:32 18.92277 12.90282 36860 ft 430 kts 173°
2026-04-17 11:33 18.86532 12.92016 36863 ft 429 kts 174°
2026-04-17 11:33 18.80785 12.93761 36862 ft 430 kts 174°
2026-04-17 11:34 18.75078 12.95580 36857 ft 431 kts 173°
2026-04-17 11:34 18.69349 12.97449 36859 ft 431 kts 173°
2026-04-17 11:35 18.63619 12.99325 36851 ft 431 kts 172°
2026-04-17 11:35 18.57876 13.01200 36854 ft 432 kts 172°
2026-04-17 11:36 18.52135 13.03072 36853 ft 432 kts 172°
2026-04-17 11:36 18.46397 13.04939 36853 ft 432 kts 172°
2026-04-17 11:37 18.40658 13.06806 36846 ft 432 kts 172°
2026-04-17 11:37 18.34909 13.08675 36851 ft 432 kts 172°
2026-04-17 11:38 18.29201 13.10529 36852 ft 432 kts 172°
2026-04-17 11:38 18.23418 13.12406 36851 ft 432 kts 172°
2026-04-17 11:39 18.17706 13.14260 36848 ft 432 kts 172°
2026-04-17 11:39 18.11951 13.16125 36849 ft 433 kts 172°
2026-04-17 11:40 18.06199 13.17988 36847 ft 433 kts 172°
2026-04-17 11:40 18.00436 13.19854 36846 ft 433 kts 172°
2026-04-17 11:41 17.94672 13.21718 36849 ft 433 kts 172°
2026-04-17 11:41 17.88903 13.23583 36849 ft 434 kts 172°
2026-04-17 11:42 17.83121 13.25451 36848 ft 434 kts 172°
2026-04-17 11:42 17.77377 13.27306 36848 ft 434 kts 172°
2026-04-17 11:43 17.71604 13.29169 36847 ft 434 kts 172°
2026-04-17 11:43 17.65825 13.31032 36845 ft 434 kts 172°
2026-04-17 11:44 17.60040 13.32896 36846 ft 434 kts 172°
2026-04-17 11:44 17.54263 13.34756 36841 ft 434 kts 172°
2026-04-17 11:45 17.48487 13.36614 36840 ft 434 kts 172°
2026-04-17 11:45 17.42741 13.38462 36840 ft 434 kts 172°
2026-04-17 11:46 17.36963 13.40318 36838 ft 434 kts 172°
2026-04-17 11:46 17.31184 13.42174 36838 ft 434 kts 172°
2026-04-17 11:47 17.25407 13.44027 36829 ft 435 kts 172°
2026-04-17 11:47 17.19601 13.45887 36831 ft 437 kts 172°
2026-04-17 11:48 17.13790 13.47750 36828 ft 437 kts 172°
2026-04-17 11:48 17.07985 13.49611 36826 ft 436 kts 172°
2026-04-17 11:49 17.02209 13.51459 36829 ft 437 kts 172°
2026-04-17 11:49 16.96388 13.53321 36823 ft 437 kts 172°
2026-04-17 11:50 16.90572 13.55180 36823 ft 437 kts 171°
2026-04-17 11:50 16.84753 13.57039 36816 ft 437 kts 171°
2026-04-17 11:51 16.78941 13.58895 36817 ft 437 kts 171°
2026-04-17 11:51 16.73123 13.60751 36808 ft 437 kts 171°
2026-04-17 11:52 16.67310 13.62604 36809 ft 437 kts 171°
2026-04-17 11:52 16.61533 13.64445 36807 ft 437 kts 171°
2026-04-17 11:53 16.55723 13.66295 36805 ft 436 kts 171°
2026-04-17 11:53 16.49925 13.68140 36804 ft 435 kts 171°
2026-04-17 11:54 16.44133 13.69981 36798 ft 434 kts 171°
2026-04-17 11:54 16.38349 13.71818 36798 ft 434 kts 171°
2026-04-17 11:55 16.32568 13.73654 36796 ft 434 kts 171°
2026-04-17 11:55 16.26825 13.75477 36791 ft 434 kts 171°
2026-04-17 11:56 16.21047 13.77309 36788 ft 434 kts 170°
2026-04-17 11:56 16.15272 13.79141 36786 ft 433 kts 171°
2026-04-17 11:57 16.09508 13.80967 36787 ft 433 kts 171°
2026-04-17 11:57 16.03746 13.82791 36789 ft 432 kts 171°
2026-04-17 11:58 15.97984 13.84613 36782 ft 432 kts 171°
2026-04-17 11:58 15.92264 13.86422 36779 ft 432 kts 170°
2026-04-17 11:59 15.86518 13.88239 36779 ft 431 kts 170°
2026-04-17 11:59 15.80782 13.90052 36779 ft 430 kts 170°
2026-04-17 12:00 15.75050 13.91861 36776 ft 430 kts 170°
2026-04-17 12:00 15.69323 13.93668 36777 ft 430 kts 170°
2026-04-17 12:01 15.63596 13.95474 36774 ft 430 kts 170°
2026-04-17 12:01 15.57869 13.97279 36774 ft 430 kts 170°
2026-04-17 12:02 15.52139 13.99083 36767 ft 430 kts 169°
2026-04-17 12:02 15.46425 14.00882 36771 ft 429 kts 169°
2026-04-17 12:03 15.40717 14.02678 36769 ft 429 kts 169°
2026-04-17 12:03 15.35028 14.04466 36768 ft 429 kts 169°
2026-04-17 12:04 15.29310 14.06263 36768 ft 429 kts 169°
2026-04-17 12:04 15.23590 14.08059 36768 ft 429 kts 169°
2026-04-17 12:05 15.17880 14.09851 36757 ft 429 kts 169°
2026-04-17 12:05 15.12164 14.11644 36762 ft 429 kts 169°
2026-04-17 12:06 15.06448 14.13436 36764 ft 429 kts 169°
2026-04-17 12:06 15.00766 14.15216 36758 ft 429 kts 169°
2026-04-17 12:07 14.95046 14.17008 36756 ft 429 kts 169°
2026-04-17 12:07 14.89326 14.18798 36753 ft 429 kts 169°
2026-04-17 12:08 14.83610 14.20585 36739 ft 429 kts 169°
2026-04-17 12:08 14.77896 14.22372 36751 ft 429 kts 169°
2026-04-17 12:09 14.72163 14.24162 36750 ft 431 kts 169°
2026-04-17 12:09 14.66418 14.25956 36750 ft 431 kts 169°
2026-04-17 12:10 14.60713 14.27737 36745 ft 431 kts 169°
2026-04-17 12:10 14.54962 14.29532 36745 ft 431 kts 169°
2026-04-17 12:11 14.50183 14.31022 36745 ft 431 kts 169°
2026-04-17 12:12 14.41553 14.33710 36736 ft 432 kts 169°
2026-04-17 12:12 14.35790 14.35504 36735 ft 433 kts 169°
2026-04-17 12:13 14.30022 14.37299 36739 ft 433 kts 169°
2026-04-17 12:13 14.24257 14.39093 36739 ft 433 kts 169°
2026-04-17 12:14 14.18492 14.40885 36730 ft 433 kts 169°
2026-04-17 12:14 14.12766 14.42664 36730 ft 433 kts 169°
2026-04-17 12:15 14.06991 14.44458 36734 ft 433 kts 169°
2026-04-17 12:15 14.01221 14.46249 36727 ft 433 kts 169°
2026-04-17 12:16 13.95457 14.48037 36727 ft 433 kts 169°
2026-04-17 12:16 13.89730 14.49813 36724 ft 433 kts 169°
2026-04-17 12:17 13.83966 14.51599 36730 ft 433 kts 169°
2026-04-17 12:17 13.78198 14.53386 36730 ft 433 kts 169°
2026-04-17 12:18 13.72437 14.55171 36724 ft 432 kts 169°
2026-04-17 12:18 13.66680 14.56952 36736 ft 432 kts 169°
2026-04-17 12:19 13.60926 14.58732 36722 ft 432 kts 169°
2026-04-17 12:19 13.55168 14.60511 36720 ft 432 kts 169°
2026-04-17 12:20 13.49410 14.62290 36730 ft 432 kts 169°
2026-04-17 12:20 13.43689 14.64057 36734 ft 432 kts 169°
2026-04-17 12:21 13.37934 14.65834 36737 ft 431 kts 168°
2026-04-17 12:21 13.32195 14.67605 36737 ft 430 kts 168°
2026-04-17 12:22 13.26460 14.69373 36739 ft 430 kts 168°
2026-04-17 12:22 13.20726 14.71140 36747 ft 430 kts 168°
2026-04-17 12:23 13.15028 14.72895 36743 ft 430 kts 168°
2026-04-17 12:23 13.09288 14.74662 36744 ft 430 kts 168°
2026-04-17 12:24 13.03555 14.76426 36747 ft 430 kts 168°
2026-04-17 12:24 12.97816 14.78192 36750 ft 430 kts 168°
2026-04-17 12:25 12.92072 14.79958 36740 ft 430 kts 168°
2026-04-17 12:25 12.86335 14.81721 36742 ft 430 kts 168°
2026-04-17 12:26 12.80635 14.83472 36750 ft 430 kts 168°
2026-04-17 12:26 12.74896 14.85234 36746 ft 430 kts 168°
2026-04-17 12:27 12.69156 14.86995 36735 ft 430 kts 168°
2026-04-17 12:27 12.63425 14.88753 36744 ft 429 kts 168°
2026-04-17 12:28 12.57703 14.90508 36744 ft 429 kts 168°
2026-04-17 12:28 12.51982 14.92261 36748 ft 429 kts 167°
2026-04-17 12:29 12.46266 14.94011 36742 ft 429 kts 167°
2026-04-17 12:29 12.40574 14.95753 36744 ft 429 kts 167°
2026-04-17 12:30 12.34847 14.97506 36741 ft 429 kts 167°
2026-04-17 12:30 12.29113 14.99260 36745 ft 430 kts 167°
2026-04-17 12:31 12.23380 15.01013 36748 ft 430 kts 167°
2026-04-17 12:31 12.17646 15.02765 36744 ft 430 kts 167°
2026-04-17 12:32 12.11855 15.04191 36741 ft 426 kts 175°
2026-04-17 12:32 12.05971 15.04816 36745 ft 425 kts 179°
2026-04-17 12:33 12.00074 15.05265 36743 ft 425 kts 179°
2026-04-17 12:33 11.94213 15.05760 36736 ft 425 kts 178°
2026-04-17 12:34 11.88302 15.06313 36738 ft 426 kts 177°
2026-04-17 12:34 11.82403 15.06884 36739 ft 426 kts 177°
2026-04-17 12:35 11.76493 15.07456 36746 ft 426 kts 177°
2026-04-17 12:35 11.70587 15.08026 36737 ft 426 kts 177°
2026-04-17 12:37 11.46895 15.10300 36747 ft 430 kts 177°
2026-04-17 12:38 11.40946 15.10871 36750 ft 430 kts 177°
2026-04-17 12:38 11.34990 15.11443 36756 ft 430 kts 177°
2026-04-17 12:39 11.29076 15.12010 36758 ft 430 kts 177°
2026-04-17 12:39 11.23112 15.12581 36755 ft 431 kts 177°
2026-04-17 12:40 11.17116 15.13154 36752 ft 432 kts 177°
2026-04-17 12:40 11.11123 15.13728 36752 ft 432 kts 177°
2026-04-17 12:41 11.05131 15.14302 36761 ft 432 kts 176°
2026-04-17 12:41 10.99134 15.14876 36761 ft 433 kts 176°
2026-04-17 12:42 10.93174 15.15446 36758 ft 433 kts 177°
2026-04-17 12:42 10.87174 15.16019 36761 ft 434 kts 177°
2026-04-17 12:43 10.81155 15.16594 36763 ft 435 kts 177°
2026-04-17 12:43 10.75123 15.17170 36764 ft 435 kts 177°
2026-04-17 12:44 10.69084 15.17747 36764 ft 435 kts 177°
2026-04-17 12:44 10.63090 15.18319 36765 ft 435 kts 177°
2026-04-17 12:45 10.57049 15.18895 36764 ft 435 kts 177°
2026-04-17 12:45 10.51019 15.19470 36762 ft 435 kts 177°
2026-04-17 12:46 10.44985 15.20046 36766 ft 435 kts 177°
2026-04-17 12:46 10.38950 15.20621 36766 ft 435 kts 177°
2026-04-17 12:47 10.32923 15.21195 36766 ft 435 kts 177°
2026-04-17 12:47 10.26896 15.21768 36767 ft 435 kts 177°
2026-04-17 12:48 10.20899 15.22339 36750 ft 435 kts 177°
2026-04-17 12:48 10.14859 15.22914 36764 ft 437 kts 177°
2026-04-17 12:49 10.08798 15.23490 36763 ft 437 kts 177°
2026-04-17 12:49 10.02736 15.24067 36761 ft 437 kts 177°
2026-04-17 12:50 9.96680 15.24643 36756 ft 437 kts 177°
2026-04-17 12:50 9.90653 15.25215 36763 ft 437 kts 177°
2026-04-17 12:51 9.84592 15.25791 36763 ft 437 kts 177°
2026-04-17 12:51 9.78546 15.26365 36766 ft 436 kts 176°
2026-04-17 12:52 9.72510 15.26939 36763 ft 435 kts 176°
2026-04-17 12:52 9.66476 15.27511 36763 ft 435 kts 176°
2026-04-17 12:53 9.60441 15.28084 36763 ft 435 kts 176°
2026-04-17 12:53 9.54437 15.28653 36768 ft 435 kts 176°
2026-04-17 12:54 9.48387 15.29227 36759 ft 438 kts 176°
2026-04-17 12:54 9.42291 15.29804 36766 ft 440 kts 176°
2026-04-17 12:55 9.36182 15.30382 36762 ft 441 kts 176°
2026-04-17 12:55 9.30076 15.30960 36755 ft 441 kts 176°
2026-04-17 12:56 9.24009 15.31534 36762 ft 441 kts 176°
2026-04-17 12:56 9.17897 15.32112 36753 ft 441 kts 176°
2026-04-17 12:57 9.11786 15.32690 36755 ft 441 kts 176°
2026-04-17 12:57 9.05679 15.33267 36745 ft 441 kts 176°
2026-04-17 12:58 8.99570 15.33843 36747 ft 441 kts 176°
2026-04-17 12:58 8.93466 15.34420 36742 ft 441 kts 176°
2026-04-17 12:59 8.87361 15.34996 36736 ft 440 kts 176°
2026-04-17 12:59 8.81254 15.35572 36736 ft 440 kts 176°
2026-04-17 13:00 8.75152 15.36148 36725 ft 441 kts 176°
2026-04-17 13:00 8.69024 15.36725 36741 ft 443 kts 176°
2026-04-17 13:01 8.62877 15.37304 36745 ft 444 kts 176°
2026-04-17 13:01 8.57765 15.37786 36726 ft 444 kts 176°
2026-04-17 13:02 8.51611 15.38366 36732 ft 444 kts 176°
2026-04-17 13:02 8.45459 15.38946 36731 ft 444 kts 176°
2026-04-17 13:03 8.39310 15.39525 36729 ft 444 kts 176°
2026-04-17 13:03 8.33144 15.40105 36725 ft 445 kts 176°
2026-04-17 13:04 8.26972 15.40685 36722 ft 445 kts 176°
2026-04-17 13:04 8.20842 15.41262 36723 ft 446 kts 176°
2026-04-17 13:05 8.14662 15.41843 36716 ft 446 kts 176°
2026-04-17 13:05 8.08494 15.42423 36714 ft 446 kts 176°
2026-04-17 13:06 8.02314 15.43003 36715 ft 445 kts 176°
2026-04-17 13:06 7.96163 15.43582 36712 ft 443 kts 176°
2026-04-17 13:07 7.90027 15.44158 36708 ft 442 kts 176°
2026-04-17 13:07 7.83935 15.44730 36706 ft 442 kts 176°
2026-04-17 13:08 7.77802 15.45306 36711 ft 442 kts 176°
2026-04-17 13:08 7.71669 15.45882 36709 ft 442 kts 176°
2026-04-17 13:09 7.65539 15.46457 36708 ft 442 kts 176°
2026-04-17 13:09 7.59426 15.47031 36716 ft 440 kts 176°
2026-04-17 13:10 7.53362 15.47600 36720 ft 440 kts 176°
2026-04-17 13:10 7.47261 15.48172 36714 ft 440 kts 176°
2026-04-17 13:11 7.41156 15.48744 36732 ft 440 kts 176°
2026-04-17 13:11 7.35058 15.49315 36731 ft 440 kts 176°
2026-04-17 13:12 7.28953 15.49887 36750 ft 440 kts 176°
2026-04-17 13:12 7.19803 15.50744 36750 ft 440 kts 176°
2026-04-17 13:13 7.13714 15.51314 36748 ft 439 kts 176°
2026-04-17 13:13 7.07661 15.51881 36746 ft 439 kts 176°
2026-04-17 13:14 7.01565 15.52451 36757 ft 439 kts 176°
2026-04-17 13:14 6.95473 15.53021 36761 ft 440 kts 176°
2026-04-17 13:15 6.89376 15.53591 36759 ft 440 kts 176°
2026-04-17 13:15 6.83281 15.54160 36772 ft 440 kts 176°
2026-04-17 13:16 6.77185 15.54730 36771 ft 440 kts 176°
2026-04-17 13:16 6.71098 15.55298 36772 ft 439 kts 176°
2026-04-17 13:17 6.65005 15.55867 36771 ft 440 kts 176°
2026-04-17 13:17 6.58916 15.56435 36781 ft 440 kts 175°
2026-04-17 13:18 6.52854 15.57000 36780 ft 440 kts 175°
2026-04-17 13:18 6.46749 15.57569 36774 ft 440 kts 175°
2026-04-17 13:19 6.40641 15.58139 36781 ft 440 kts 175°
2026-04-17 13:19 6.34543 15.58707 36781 ft 440 kts 175°
2026-04-17 13:20 6.28472 15.59273 36778 ft 440 kts 175°
2026-04-17 13:20 6.22369 15.59842 36776 ft 440 kts 175°
2026-04-17 13:21 6.16270 15.60410 36774 ft 440 kts 175°
2026-04-17 13:21 6.10177 15.60978 36777 ft 439 kts 175°
2026-04-17 13:22 6.04087 15.61545 36772 ft 440 kts 175°
2026-04-17 13:22 5.98030 15.62109 36769 ft 439 kts 175°
2026-04-17 13:23 5.91940 15.62675 36771 ft 439 kts 175°
2026-04-17 13:23 5.85838 15.63243 36768 ft 440 kts 175°
2026-04-17 13:24 5.79736 15.63811 36766 ft 441 kts 175°
2026-04-17 13:24 5.73625 15.64379 36765 ft 441 kts 175°
2026-04-17 13:25 5.67515 15.64948 36762 ft 440 kts 175°
2026-04-17 13:25 5.61453 15.65511 36759 ft 440 kts 175°
2026-04-17 13:26 5.55347 15.66079 36756 ft 440 kts 175°
2026-04-17 13:26 5.49242 15.66648 36755 ft 440 kts 175°
2026-04-17 13:27 5.43138 15.67217 36759 ft 440 kts 175°
2026-04-17 13:27 5.37031 15.67786 36754 ft 440 kts 175°
2026-04-17 13:28 5.30926 15.68355 36753 ft 440 kts 175°
2026-04-17 13:28 5.24861 15.68920 36751 ft 441 kts 175°
2026-04-17 13:29 5.18758 15.69489 36747 ft 440 kts 175°
2026-04-17 13:29 5.12657 15.70057 36752 ft 440 kts 175°
2026-04-17 13:30 5.06558 15.70625 36752 ft 440 kts 175°
2026-04-17 13:30 5.00463 15.71192 36749 ft 439 kts 175°
2026-04-17 13:31 4.94376 15.71759 36753 ft 440 kts 175°
2026-04-17 13:31 4.88304 15.72324 36753 ft 440 kts 175°
2026-04-17 13:32 4.82206 15.72891 36755 ft 440 kts 175°
2026-04-17 13:32 4.76108 15.73456 36759 ft 440 kts 175°
2026-04-17 13:33 4.70015 15.74021 36753 ft 439 kts 175°
2026-04-17 13:33 4.63963 15.74582 36758 ft 439 kts 175°
2026-04-17 13:34 4.57869 15.75147 36759 ft 439 kts 175°
2026-04-17 13:34 4.51778 15.75711 36757 ft 439 kts 175°
2026-04-17 13:35 4.45697 15.76275 36754 ft 439 kts 175°
2026-04-17 13:35 4.39609 15.76839 36762 ft 439 kts 175°
2026-04-17 13:36 4.33532 15.77401 36757 ft 438 kts 175°
2026-04-17 13:36 4.27462 15.77963 36757 ft 438 kts 175°
2026-04-17 13:37 4.21427 15.78369 36754 ft 437 kts 179°
2026-04-17 13:37 4.15340 15.78170 36754 ft 437 kts 183°
2026-04-17 13:38 4.09259 15.77792 36755 ft 438 kts 183°
2026-04-17 13:38 4.03182 15.77441 36753 ft 437 kts 183°
2026-04-17 13:39 3.97091 15.77131 36755 ft 438 kts 182°
2026-04-17 13:39 3.90997 15.76838 36756 ft 438 kts 182°
2026-04-17 13:40 3.84899 15.76548 36757 ft 439 kts 182°
2026-04-17 13:40 3.78835 15.76256 36760 ft 438 kts 182°
2026-04-17 13:41 3.72743 15.75963 36760 ft 438 kts 182°
2026-04-17 13:41 3.66645 15.75669 36769 ft 438 kts 182°
2026-04-17 13:42 3.60548 15.75375 36765 ft 438 kts 182°
2026-04-17 13:42 3.54454 15.75081 36765 ft 438 kts 182°
2026-04-17 13:43 3.48364 15.74788 36763 ft 439 kts 182°
2026-04-17 13:43 3.42302 15.74496 36764 ft 438 kts 182°
2026-04-17 13:44 3.36205 15.74202 36768 ft 439 kts 182°
2026-04-17 13:44 3.30105 15.73908 36768 ft 438 kts 182°
2026-04-17 13:45 3.24013 15.73615 36767 ft 438 kts 182°
2026-04-17 13:45 3.17917 15.73321 36765 ft 438 kts 182°
2026-04-17 13:46 3.11823 15.73027 36765 ft 438 kts 182°
2026-04-17 13:46 3.05724 15.72734 36767 ft 439 kts 182°
2026-04-17 13:47 2.99626 15.72440 36766 ft 438 kts 182°
2026-04-17 13:47 2.93588 15.72165 36759 ft 434 kts 181°
2026-04-17 13:48 2.87587 15.71945 36764 ft 429 kts 181°
2026-04-17 13:48 2.81763 15.71655 36757 ft 405 kts 183°
2026-04-17 13:49 2.79001 15.71437 36744 ft 391 kts 185°
2026-04-17 13:49 2.76355 15.71068 36735 ft 378 kts 190°
2026-04-17 13:49 2.73836 15.70478 36708 ft 366 kts 196°
2026-04-17 13:49 2.71487 15.69621 36662 ft 354 kts 203°
2026-04-17 13:50 2.67494 15.67009 36551 ft 334 kts 223°
2026-04-17 13:50 2.66026 15.65261 36480 ft 325 kts 237°
2026-04-17 13:50 2.65060 15.63255 36401 ft 317 kts 253°
2026-04-17 13:51 2.64753 15.61111 36302 ft 308 kts 273°
2026-04-17 13:51 2.65236 15.59096 36192 ft 300 kts 298°
2026-04-17 13:51 2.66042 15.57969 36102 ft 292 kts 319°
2026-04-17 13:51 2.68423 15.56980 35615 ft 285 kts
2026-04-17 13:52 2.70269 15.57654 34865 ft 291 kts 46°
2026-04-17 13:52 2.71044 15.58775 34382 ft 295 kts 76°
2026-04-17 13:52 2.70875 15.60740 33839 ft 297 kts 124°
2026-04-17 13:52 2.69178 15.61827 33198 ft 307 kts 179°
2026-04-17 13:53 2.67288 15.60920 32162 ft 328 kts 242°
2026-04-17 13:53 2.67293 15.58699 30745 ft 348 kts 313°
2026-04-17 13:53 2.69464 15.58090 29037 ft 356 kts 34°
2026-04-17 13:53 2.70009 15.60226 27242 ft 373 kts 133°
2026-04-17 13:54 2.69089 15.58257 23550 ft 395 kts 22°
2026-04-17 13:54 2.69342 15.60324 21900 ft 390 kts 160°
2026-04-17 13:55 2.69841 15.59027 18672 ft 374 kts 86°
2026-04-17 13:55 2.68061 15.59907 17190 ft 388 kts 230°
2026-04-17 13:55 2.68959 15.59786 14559 ft 358 kts 172°
2026-04-17 13:56 2.69284 15.59115 12137 ft 321 kts 133°
2026-04-17 13:56 2.67891 15.58264 10981 ft 333 kts 301°
2026-04-17 13:56 2.69244 15.58599 9842 ft 294 kts 112°
2026-04-17 13:57 2.67865 15.58235 8643 ft 311 kts 287°
2026-04-17 13:57 2.69162 15.58290 7613 ft 272 kts 104°
2026-04-17 13:57 2.69152 15.58123 5597 ft 251 kts 104°
2026-04-17 13:58 2.68082 15.57912 4307 ft 267 kts 288°
2026-04-17 13:58 2.68245 15.57681 2255 ft 252 kts 301°
2026-04-17 13:58 2.68852 15.57346 2025 ft 0 kts 356°
2026-04-17 13:59 2.68851 15.57346 2025 ft 0 kts 356°